AKST,Max TemperatureF,Mean TemperatureF,Min TemperatureF,Max Dew PointF,MeanDew PointF,Min DewpointF,Max Humidity, Mean Humidity, Min Humidity, Max Sea Level PressureIn, Mean Sea Level PressureIn, Min Sea Level PressureIn, Max VisibilityMiles, Mean VisibilityMiles, Min VisibilityMiles, Max Wind SpeedMPH, Mean Wind SpeedMPH, Max Gust SpeedMPH,PrecipitationIn, CloudCover, Events, WindDirDegrees
2013-1-1,25,17,9,18,11,4,84,77,60,29.96,29.63,29.26,10,10,10,12,4,,0.00,3,,54
2013-1-2,30,26,21,24,17,11,79,64,57,29.73,29.50,29.26,10,10,10,14,8,21,0.00,3,,122
2013-1-3,19,8,-2,10,-1,-7,84,78,65,29.91,29.86,29.75,10,10,10,7,3,,0.00,0,,113
2013-1-4,16,7,-2,6,1,-6,83,71,62,30.01,29.92,29.85,10,10,10,12,4,24,0.00,4,,122
2013-1-5,12,6,1,3,0,-4,76,69,64,30.01,29.78,29.58,10,10,10,13,7,23,0.00,5,,112
2013-1-6,19,11,3,12,7,-1,84,76,68,29.57,29.49,29.42,10,10,4,9,5,16,0.00,4,Snow,94
2013-1-7,7,-1,-9,2,-5,-17,84,77,71,29.58,29.42,29.31,10,10,8,4,0,,0.00,5,,235
2013-1-8,6,4,0,0,-2,-6,85,78,75,30.06,29.78,29.58,10,9,3,0,0,,0.00,8,Snow,-1
2013-1-9,3,-4,-11,-2,-7,-18,80,75,66,30.22,30.17,30.09,10,10,10,12,2,21,0.00,5,,129
2013-1-10,7,4,1,-2,-4,-8,69,66,60,30.17,30.11,30.04,10,7,1,16,9,30,0.00,6,Snow,124
2013-1-11,7,4,1,0,-4,-8,73,66,60,30.26,30.15,30.10,10,6,0,16,12,31,0.01,5,Snow,127
2013-1-12,14,10,5,5,-1,-6,71,64,60,30.28,30.20,30.06,10,10,4,15,10,26,0.00,5,Snow,119
2013-1-13,21,18,16,18,12,5,86,69,59,30.04,29.89,29.71,10,8,2,13,9,24,0.01,8,Snow,124
2013-1-14,30,26,21,24,19,17,88,78,69,29.73,29.59,29.40,10,8,2,14,8,25,0.01,7,Snow,122
2013-1-15,28,8,-13,26,13,-20,96,83,55,30.30,29.95,29.73,10,6,0,6,1,,0.08,5,Fog-Snow,223
2013-1-16,7,-4,-15,-2,-9,-22,79,73,67,30.32,30.16,29.92,10,9,2,9,1,,0.00,4,Snow,110
2013-1-17,3,-4,-11,-4,-8,-19,78,70,57,30.22,29.90,29.75,10,5,2,8,2,,0.01,7,Snow,321
2013-1-18,-14,-28,-43,-21,-30,-37,77,71,66,30.82,30.57,30.26,10,10,10,4,1,,0.00,0,,186
2013-1-19,-4,-24,-44,-16,-23,-36,67,60,54,30.87,30.76,30.56,10,10,9,10,2,16,0.00,1,,113
2013-1-20,6,2,-2,0,-5,-17,80,68,49,30.53,30.27,30.12,10,4,1,12,8,20,0.20,8,Snow,116
2013-1-21,6,4,1,0,-8,-12,73,59,52,30.33,30.27,30.12,10,8,2,13,6,18,0.01,8,Snow,90
2013-1-22,3,2,1,-9,-10,-13,58,54,50,30.28,30.14,30.02,10,10,9,9,7,20,0.00,8,,97
2013-1-23,1,-3,-8,-6,-13,-18,72,60,54,30.00,29.89,29.85,10,8,3,5,1,,0.00,8,Snow,130
2013-1-24,-7,-8,-9,-16,-17,-18,71,70,59,29.95,29.87,29.79,4,2,1,7,1,,0.13,8,Snow,272
2013-1-25,-9,-14,-20,-18,-22,-30,70,64,58,30.01,29.84,29.77,10,4,1,13,7,20,0.02,8,Snow,290
2013-1-26,-23,-37,-51,-31,-31,-31,67,67,67,30.28,30.15,30.02,10,9,5,4,1,,0.00,0,,245
2013-1-27,-43,-48,-54,,,,,,,30.69,30.39,30.17,10,4,0,4,0,,0.00,2,Fog,248
2013-1-28,-29,-42,-56,-39,-39,-39,59,59,59,30.78,30.65,30.43,10,6,2,14,0,24,0.00,2,Snow,128
2013-1-29,-11,-20,-29,-24,-30,-37,60,56,50,30.54,30.26,30.12,10,10,5,12,9,22,0.00,2,Snow,110
2013-1-30,3,-3,-9,-8,-16,-23,59,54,51,30.19,30.11,29.97,10,9,2,14,9,31,0.00,6,Snow,131
2013-1-31,10,8,6,3,-1,-7,73,65,55,30.09,29.93,29.85,10,4,1,17,12,29,0.00,8,Snow,124